Weather History for West Palm Beach, FL

Change the Weather History Date:

Saturday, September 21, 2013

  Actual Average Record
Temperature  
Mean Temperature 80 °F 82 °F  
Max Temperature 87 °F 88 °F 94 °F (1942)
Min Temperature 72 °F 75 °F 66 °F (1910)
Degree Days  
Heating Degree Days 0 0  
Month to date heating degree days 0 0  
Since 1 July heating degree days 0 0  
Cooling Degree Days 15 17  
Month to date cooling degree days 352 357  
Year to date cooling degree days 3223 3063  
Growing Degree Days 30 (Base 50)    
Moisture  
Dew Point 71 °F    
Average Humidity 71    
Maximum Humidity 79    
Minimum Humidity 63    
Precipitation  
Precipitation 0.00 in 0.28 in 4.33 in (1941)
Month to date precipitation 6.93 5.99  
Year to date precipitation 54.55 46.71  
Snow  
Snow 0.00 in - - ()
Month to date snowfall 0.0  
Since 1 July snowfall 0.0  
Since 1 September snowfall 0.0  
Snow Depth 0.00 in    
Sea Level Pressure  
Sea Level Pressure 29.85 in    
Wind  
Wind Speed 6 mph (East)    
Max Wind Speed 13 mph    
Max Gust Speed 17 mph    
Visibility 10 miles    
Events      
T = Trace of Precipitation, MM = Missing Value Source: NWS Daily Summary

Daily Weather History Graph

Daily Weather History Graph

Search for Another Location

Airport:

Trip Planner

Search our weather history database for the weather conditions in past years. The results will help you decide how hot, cold, wet, or windy it might be!

Date:

Astronomy

Sep. 21, 2013 Rise Set
Actual Time 7:08 AM EDT 7:17 PM EDT
Civil Twilight 6:45 AM EDT 7:40 PM EDT
Nautical Twilight 6:18 AM EDT 8:07 PM EDT
Astronomical Twilight 5:51 AM EDT 8:34 PM EDT
Moon 8:46 PM EDT (9/21) 9:08 AM EDT (9/21)
Length of Visible Light 12h 55m
Length of Day
12h 09m
Waning Gibbous, 94% of the Moon is Illuminated
Sep 21
Waning Gibbous
Sep 26
Last Quarter
Oct 4
New
Oct 11
First Quarter
Oct 18
Full

Hourly Weather History & Observations

Time (EDT) Temp. Heat Index Dew Point Humidity Pressure Visibility Wind Dir Wind Speed Gust Speed Precip Events Conditions
12:53 AM 79.7 °F - 68.4 °F 68% 29.92 in 10.0 mi ENE 6.9 mph - N/A   Scattered Clouds
1:53 AM 79.0 °F - 68.4 °F 70% 29.90 in 10.0 mi NE 4.6 mph - N/A   Partly Cloudy
2:53 AM 78.6 °F - 67.3 °F 68% 29.89 in 10.0 mi ENE 5.8 mph - N/A   Partly Cloudy
3:53 AM 78.4 °F - 68.2 °F 71% 29.87 in 10.0 mi ENE 5.8 mph - N/A   Partly Cloudy
4:53 AM 77.9 °F - 67.5 °F 70% 29.86 in 10.0 mi NE 3.5 mph - N/A   Partly Cloudy
5:53 AM 77.9 °F - 67.6 °F 71% 29.86 in 10.0 mi Calm Calm - N/A   Partly Cloudy
6:53 AM 76.5 °F - 67.6 °F 74% 29.85 in 10.0 mi Calm Calm - N/A   Scattered Clouds
7:53 AM 76.6 °F - 69.4 °F 78% 29.86 in 10.0 mi NW 3.5 mph - N/A   Scattered Clouds
8:53 AM 81.0 °F 86.2 °F 73.9 °F 79% 29.88 in 10.0 mi Calm Calm - N/A   Scattered Clouds
9:53 AM 82.9 °F 88.0 °F 72.0 °F 69% 29.88 in 10.0 mi Variable 3.5 mph - N/A   Scattered Clouds
10:53 AM 84.9 °F 90.7 °F 72.0 °F 65% 29.89 in 10.0 mi Variable 4.6 mph - N/A   Scattered Clouds
11:53 AM 86.0 °F 93.0 °F 73.0 °F 65% 29.88 in 10.0 mi ESE 9.2 mph - N/A   Mostly Cloudy
12:53 PM 87.1 °F 95.4 °F 73.9 °F 65% 29.87 in 10.0 mi East 10.4 mph - N/A   Scattered Clouds
1:53 PM 84.9 °F 91.4 °F 73.0 °F 67% 29.84 in 10.0 mi ESE 10.4 mph - N/A   Scattered Clouds
2:53 PM 84.9 °F 91.4 °F 73.0 °F 67% 29.83 in 10.0 mi East 8.1 mph - N/A   Scattered Clouds
3:53 PM 84.0 °F 90.2 °F 73.0 °F 69% 29.81 in 10.0 mi East 9.2 mph - N/A   Mostly Cloudy
4:53 PM 84.9 °F 91.4 °F 73.0 °F 67% 29.79 in 10.0 mi ENE 12.7 mph - N/A   Mostly Cloudy
5:53 PM 82.9 °F 88.8 °F 73.0 °F 72% 29.79 in 10.0 mi East 9.2 mph - N/A   Mostly Cloudy
6:53 PM 82.0 °F 87.4 °F 73.0 °F 74% 29.79 in 10.0 mi East 9.2 mph - N/A   Scattered Clouds
7:53 PM 81.0 °F 85.8 °F 73.0 °F 77% 29.80 in 10.0 mi East 6.9 mph - N/A   Scattered Clouds
8:53 PM 81.0 °F 85.8 °F 73.0 °F 77% 29.82 in 10.0 mi SE 6.9 mph - N/A   Scattered Clouds
9:53 PM 80.1 °F 84.5 °F 73.9 °F 81% 29.83 in 10.0 mi SE 5.8 mph - N/A   Scattered Clouds
10:53 PM 80.1 °F 84.5 °F 73.9 °F 81% 29.84 in 10.0 mi SE 5.8 mph - N/A   Scattered Clouds
11:53 PM 80.2 °F 84.0 °F 71.6 °F 75% 29.83 in 10.0 mi SSE 5.8 mph - N/A   Partly Cloudy